Regional Weather Roundup
Issued by NWS

Home | Current Version | Previous Version | Text Only | Print | Product List | Glossary On
Versions: 1 2 3 4 5 6 7 8 9 10 11 12 13 14 15 16 17 18 19 20 21 22 23 24 25 26 27 28 29 30 31 32 33 34 35 36 37 38 39 40 41 42 43 44 45 46 47 48 49 50
000
ASUS43 KDTX 290410
RWRMI
MICHIGAN HOURLY REGIONAL WEATHER ROUNDUP
NATIONAL WEATHER SERVICE DETROIT/PONTIAC MI
1200 AM EDT SAT APR 29 2017

NOTE: "FAIR" INDICATES FEW OR NO CLOUDS BELOW 12,000 FEET WITH NO
SIGNIFICANT WEATHER AND/OR OBSTRUCTION TO VISIBILITY.

MIZ047>049-052>055-059>063-066>070-074>076-081>083-290500-
SOUTHEAST LOWER MICHIGAN

CITY           SKY/WX    TMP DP  RH WIND       PRES   REMARKS
ADRIAN         LGT RAIN  53  52  96 CALM      29.98R
ALMA           CLOUDY    55  44  67 NW7       29.99R
ANN ARBOR      CLOUDY    52  49  89 S5        29.97R
BAD AXE        CLOUDY    41  35  80 NE9       29.99S
CARO           CLOUDY    48  42  79 N7        29.96F
DETROIT CITY   PTCLDY    56  48  74 SW6       29.98S
DETROIT        MOCLDY    56  50  80 S6        29.98F
FLINT          CLOUDY    57  47  69 SW10      29.96S
GROSSE ILE     CLOUDY    55  52  87 S3        29.96S
HILLSDALE      CLOUDY    52  46  82 S5        29.97S
HOWELL         PTCLDY    53  46  76 CALM      29.96F

CITY           SKY/WX    TMP DP  RH WIND       PRES   REMARKS
JACKSON        MOCLDY    53  45  74 SW3       29.96S
LAMBERTVILLE   LGT RAIN  54  51  88 CALM      29.97R
LANSING        CLOUDY    57  46  66 SW8       29.97S
LAPEER         CLOUDY    58  46  64 SW8       29.97S
MASON          CLOUDY    54  48  82 CALM      29.96F
MONROE         RAIN      56  52  88 CALM      29.96S
MT. CLEMENS    PTCLDY    55  49  82 SW3       29.96S
PONTIAC        MOCLDY    55  47  74 CALM      29.95F
PORT HOPE        N/A     42  36  79 N14       30.00R
PORT HURON     CLOUDY    55  46  71 CALM      29.97S
TRI CITIES     CLOUDY    51  47  86 NE13      30.00R
MIDLAND        CLOUDY    56  42  59 NW7       29.99R
TROY           MOCLDY    57  47  70 CALM      29.99S
SAGINAW HB     CLOUDY    50  43  76 N12       29.98R
$$
MIZ043>046-050>051-056>058-064>065-071>073-077>080-290500-
SOUTHWEST LOWER MICHIGAN

CITY           SKY/WX    TMP DP  RH WIND       PRES   REMARKS
BATTLE CREEK   PTCLDY    52  47  83 S3        29.96F
BENTON HARBOR  CLOUDY    49  46  90 VRB3      29.96S
BIG RAPIDS     CLOUDY    44  37  78 N6        30.01S
COLDWATER      CLOUDY    54  47  80 SE5       29.96S
FREMONT        CLOUDY    45  36  71 N12       30.01S
HOLLAND        CLOUDY    54  44  69 N6        29.98S
GRAND RAPIDS   CLOUDY    54  45  71 N8        29.97R
IONIA          CLOUDY    55  44  67 N9        29.96S
KALAMAZOO      CLOUDY    53  45  74 S3        29.96F
LUDINGTON      DRIZZLE   42  40  96 N3        30.03F
MARSHALL       PTCLDY    49  47  92 CALM      29.95F
MOUNT PLEASANT CLOUDY    52  42  69 NW9       29.99R
MUSKEGON       CLOUDY    49  38  65 N12       30.01R
SOUTH HAVEN    CLOUDY    53  47  78 N6        29.96S
$$
MIZ016>042-290500-
NORTHERN LOWER MICHIGAN

CITY           SKY/WX    TMP DP  RH WIND       PRES   REMARKS
ALPENA         CLOUDY    42  32  67 NW7       30.03S
BEAVER ISLAND  CLOUDY    37  34  88 CALM      30.08R
BELLAIRE       CLOUDY    41  32  69 CALM      30.07R
CADILLAC       DRIZZLE   40  37  87 N3        30.02F
CHARLEVOIX     CLOUDY    39  33  78 NW7       30.10R WCI  34
FRANKFORT      CLOUDY    43  35  73 N5        30.05F
GAYLORD        CLOUDY    41  27  57 NW5       30.05R
GRAYLING       RAIN      40  32  74 NW8       30.04S WCI  34
HARBOR SPRINGS CLOUDY    38  31  74 W3        30.07R
HOUGHTON LAKE  CLOUDY    41  35  79 N7        30.03R
MANISTEE       LGT RAIN  42  38  85 NE3       30.04S
OSCODA         MIX PCPN  41  35  78 N3        30.02R
PELLSTON       CLOUDY    39  30  70 NW6       30.08R WCI  35
ROGERS CITY    CLOUDY    38  32  80 N8        30.06R WCI  32
TRAVERSE CITY  CLOUDY    44  33  65 N5        30.04R
$$
MIZ007>008-015-290500-
EASTERN UPPER MICHIGAN

CITY           SKY/WX    TMP DP  RH WIND       PRES   REMARKS
KINROSS        CLOUDY    36  27  69 W7        30.05R WCI  30
MACKINAC ISLAN CLOUDY    38  30  75 W6        30.06R WCI  33
NEWBERRY       CLOUDY    36  29  75 W7        30.05R WCI  30
S. S. MARIE    CLOUDY    38  28  67 W12       30.03R WCI  30
MUNISING         N/A     37  29  72 NW10      30.08R WCI  30
$$
MIZ004>006-011>014-085-290500-
CENTRAL UPPER MICHIGAN

CITY           SKY/WX    TMP DP  RH WIND       PRES   REMARKS
MANISTIQUE     CLOUDY    37  32  82 CALM      30.06S
ESCANABA       CLOUDY    39  30  70 W3        30.08R
MENOMINEE      CLOUDY    42  29  59 N3        30.09R
SAWYER-GWINN   CLOUDY    32  24  71 NW9       30.09R WCI  25
$$
MIZ001>003-009>011-084-290500-
WESTERN UPPER MICHIGAN

CITY           SKY/WX    TMP DP  RH WIND       PRES   REMARKS
IRON MOUNTAIN  PTCLDY    37  25  61 N15       30.08R WCI  28
HOUGHTON       CLOUDY    34  27  75 W10       30.09R WCI  26
COPPER HARBOR    N/A     37  29  72 N15       30.08R WCI  28
IRONWOOD       CLOUDY    27  26  96 CALM      30.14R
$$

ABBREVIATIONS USED IN REMARKS
   TC - TEMPERATURE IN CELSIUS
  WCI - WIND CHILL INDEX
   HX - HEAT INDEX
  VSB - VISIBILITY





USA.gov is the U.S. government's official web portal to all federal, state and local government web resources and services.